DECAYED

CZ-6A DEB, 61499 (Decayed)

Orbit data source: Space-Track

CZ-6A DEB, 61499 was space debris in LEO originally from a launch on Tue, 06 Aug 2024 UTC launched from the Taiyaun Space Center, China (TSC). Debris objects in space refer to the collection of defunct objects orbiting the Earth. Examples of debris include non-operational satellites, rocket bodies, and fragments generated from explosions, collisions, or faulty payload assembly.

Not visible in the next 10 days
Identifier
61499, 2024-140ABH
Orbit
Decayed
Country
Flag of CNCN / PRC
Related business
Manufacturer
SAST
Mission
Decayed spacecraft
Bus & Motor
Unknown
Mass
Unknown
Launch date (UTC)
2024-08-06 (2 years ago)
Launch vehicle
Unknown
Launch site
Taiyaun Space Center, China (TSC)
Object type
Payload
Rocket body
Debris
Shape & HBR
Unknown shape, 0.1 m
Radar Cross Section
Medium (>0.1 m² and <1 m²)

Expand to show TLE details & history
Last TLE update: 4 months ago

TLE from 4 months ago
0 CZ-6A DEB
1 61499U 24140ABH 26052.15968748  .13507611 -92879-6  65572-2 0  9996
2 61499  88.8497 273.4320 0002854 191.0707 169.0531 16.21266732 78332
Epoch: 2026-02-21T03:49Z
TLE epoch observation values (Epoch: 2026-02-21T03:49:56.998Z)
Latitude
0.00001°
Longitude
64.85824°
Altitude
221.298 km
Speed
7.773 km/s
True Right ascension
18h 13m 43s
True Declination
0° 00' 00"
Sunlit
Object was in daylight at epoch
Visualization orbit readout
Latitude
Unknown
Longitude
Unknown
Altitude
Unknown
Speed
Unknown
Apparent Right ascension
Unknown
Apparent Declination
Unknown
Sunlit
N/A
Visualization observer readout
Local Sidereal Time
07:20:09
Azimuth
Unknown
Elevation
Unknown
Doppler factor
Unknown
Orbital elements
Apogee altitude
214.666 km
Perigee altitude
210.904 km
Semi-major axis
6,590.922 km
Eccentricity
0.00029
Inclination
88.8497°
RAAN
273.432°
Arg. of periapsis
191.0707°
True anomaly
169.05931°
Mean anomaly
169.0531°
Eccentric anomaly
169.0562°
Mean motion
4.05624 °/min
Orbital period
88.75 mins
BSTAR
0.0065572
Loading maneuver chart data...
Computing Atmospheric mass density...
Loading historical data...
Loading historical data...
Loading historical data...
Loading historical data...
Loading historical data...
Loading historical data...
Loading historical data...

Documentation

Showing up to 5 results
|